Torna al catalogo

USA 428

AttivoMilitareVLEO
NORAD 61651·PAYLOAD·🇺🇸 United States

Lanciato Oct 24, 2024 da Vandenberg Space Force Base

Loading…

Prossimi Passaggi (prossime 24 ore)

TLE

ObsoletoSource: Mike McCants

Epoca: Aug 11, 2026, 20:29 UTC

1 61651U 24192H   26223.85358817 0.00000000  00000-0  00000-0 0    00
2 61651  70.0200 127.1033 0004000 245.9808 114.0192 14.96713205    03

Traccia USA 428 in tempo reale con AllMySat

Download on the App Store